period_start,C,m1,H,J0,J1,J2,J3,J4,J5,JA,JB,JC,JD,JJ,JK,JN,#
2017-08-02 00:04:27,-0.00,2.81,0.00,24.93,29.12,31.57,13.72,50.07,1003.67,2022.96,2454.99,2432.98,2700.00,599.74,584.44,45.69,0000 0000 0000 0000 000000
2017-08-02 00:09:28,0.00,2.81,0.00,24.95,29.12,31.56,13.76,50.04,1003.74,2022.98,2455.00,2432.98,2700.00,599.81,584.67,45.74,0000 0000 0000 0000 000000
2017-08-02 00:14:28,0.00,2.81,0.00,24.96,29.11,31.55,13.75,50.08,1003.82,2022.99,2454.99,2432.98,2700.01,600.18,584.73,45.79,0000 0000 0000 0000 000000
2017-08-02 00:19:29,0.00,2.81,0.00,24.97,29.10,31.54,13.76,50.06,1003.78,2022.99,2455.00,2432.99,2700.00,600.29,584.77,45.84,0000 0000 0000 0000 000000
2017-08-02 00:24:31,0.00,2.81,0.00,25.00,29.10,31.54,13.72,50.06,1003.88,2022.99,2455.00,2432.98,2700.00,600.10,584.71,45.89,0000 0000 0000 0000 000000
2017-08-02 00:29:32,0.00,2.81,0.00,25.01,29.10,31.54,13.69,50.12,1003.84,2022.99,2455.01,2432.97,2700.00,599.84,584.38,45.94,0000 0000 0000 0000 000000
2017-08-02 00:34:33,0.00,2.81,0.00,25.02,29.10,31.53,13.72,50.07,1003.91,2022.99,2454.99,2432.97,2700.00,600.07,584.65,45.99,0000 0000 0000 0000 000000
2017-08-02 00:39:34,-0.00,2.81,0.00,25.04,29.09,31.54,13.72,50.11,1003.92,2022.99,2454.96,2432.96,2700.00,599.93,584.51,46.04,0000 0000 0000 0000 000000
2017-08-02 00:44:36,-0.00,2.81,0.00,25.07,29.08,31.53,13.77,50.22,1003.92,2022.99,2454.91,2432.92,2700.00,600.41,584.99,46.09,0000 0000 0000 0000 000000
2017-08-02 00:49:37,0.01,2.81,0.00,25.07,29.08,31.52,13.78,50.13,1003.91,2022.99,2454.68,2432.75,2700.00,600.26,584.84,46.14,0000 0000 0000 0000 000000
2017-08-02 00:54:38,0.01,2.81,0.00,25.10,29.07,31.53,13.67,50.12,1003.87,2022.99,2454.53,2432.45,2699.99,599.64,584.15,46.19,0000 0000 0000 0000 000000
2017-08-02 00:59:39,0.01,2.81,0.00,25.12,29.07,31.52,13.74,50.11,1003.76,2022.99,2454.19,2432.30,2699.98,600.22,584.61,46.24,0000 0000 0000 0000 000000
2017-08-02 01:04:40,0.00,2.81,0.00,25.15,29.08,31.51,13.73,50.13,1003.70,2022.99,2454.23,2432.29,2699.94,600.30,584.50,46.29,0000 0000 0000 0000 000000
2017-08-02 01:09:42,0.01,2.81,0.00,25.17,29.09,31.51,13.79,50.34,1003.68,2022.99,2454.22,2432.20,2699.92,600.61,584.77,46.34,0000 0000 0000 0000 000000
2017-08-02 01:14:43,0.01,2.81,0.00,25.19,29.10,31.50,13.71,50.29,1003.61,2022.99,2454.00,2432.06,2699.59,599.81,583.94,46.39,0000 0000 0000 0000 000000
2017-08-02 01:19:43,0.00,2.81,0.00,25.22,29.10,31.50,13.63,50.20,1003.47,2022.99,2454.00,2432.01,2699.25,599.82,583.85,46.44,0000 0000 0000 0000 000000
2017-08-02 01:24:45,0.00,2.81,0.00,25.25,29.10,31.51,13.72,50.26,1003.44,2022.98,2454.00,2432.00,2699.06,599.71,583.71,46.49,0000 0000 0000 0000 000000
2017-08-02 01:29:46,0.00,2.81,0.00,25.28,29.11,31.52,13.72,50.40,1003.45,2022.99,2453.93,2432.00,2699.01,600.01,583.95,46.54,0000 0000 0000 0000 000000
2017-08-02 01:34:47,0.00,2.81,0.00,25.32,29.12,31.54,13.74,50.30,1003.46,2022.98,2453.79,2431.99,2699.00,600.06,583.84,46.59,0000 0000 0000 0000 000000
2017-08-02 01:39:49,0.01,2.81,0.00,25.35,29.12,31.54,13.73,50.47,1003.44,2022.98,2453.36,2431.98,2698.99,600.45,584.05,46.64,0000 0000 0000 0000 000000
2017-08-02 01:44:50,0.01,2.81,0.00,25.37,29.15,31.54,13.66,50.47,1003.44,2022.98,2453.13,2431.95,2698.95,599.72,583.35,46.70,0000 0000 0000 0000 000000
2017-08-02 01:49:52,0.02,2.82,0.00,25.41,29.15,31.54,13.63,50.47,1003.43,2022.97,2453.01,2431.67,2698.74,599.78,583.36,46.75,0000 0000 0000 0000 000000
2017-08-02 01:54:53,0.01,2.82,0.00,25.45,29.17,31.56,13.72,50.59,1003.44,2022.96,2453.00,2431.31,2698.42,600.11,583.56,46.80,0000 0000 0000 0000 000000
2017-08-02 01:59:54,-0.00,2.82,0.00,25.48,29.18,31.57,13.74,50.75,1003.44,2022.88,2453.00,2431.05,2698.10,599.98,583.49,46.85,0000 0000 0000 0000 000000
2017-08-02 02:04:55,-0.02,2.82,0.00,25.50,29.20,31.60,13.70,50.63,1003.43,2022.60,2452.97,2431.01,2698.00,599.89,583.38,46.90,0000 0000 0000 0000 000000
2017-08-02 02:09:56,-0.01,2.81,0.00,25.52,29.22,31.62,13.75,50.59,1003.43,2022.32,2452.60,2431.00,2697.99,600.45,583.77,46.95,0000 0000 0000 0000 000000
2017-08-02 02:14:58,-0.00,2.82,0.00,25.55,29.23,31.64,13.65,50.63,1003.43,2022.18,2452.08,2430.99,2697.92,599.80,583.16,47.00,0000 0000 0000 0000 000000
2017-08-02 02:19:59,0.00,2.82,0.00,25.57,29.25,31.65,13.69,50.41,1003.45,2022.06,2452.02,2430.92,2697.42,599.93,583.31,47.05,0000 0000 0000 0000 000000
2017-08-02 02:25:00,0.02,2.82,0.00,25.60,29.27,31.68,13.71,50.59,1003.44,2022.02,2452.01,2430.60,2697.08,599.94,583.07,47.10,0000 0000 0000 0000 000000
2017-08-02 02:30:01,0.02,2.82,0.00,25.63,29.29,31.69,13.60,50.37,1003.44,2022.01,2451.97,2430.10,2697.00,600.09,583.22,47.15,0000 0000 0000 0000 000000
2017-08-02 02:35:03,0.01,2.82,0.00,25.66,29.31,31.71,13.65,50.40,1003.45,2022.00,2451.63,2430.01,2696.99,600.12,583.13,47.20,0000 0000 0000 0000 000000
2017-08-02 02:40:04,0.01,2.82,0.00,25.70,29.33,31.73,13.61,50.30,1003.46,2022.00,2451.12,2429.99,2696.92,599.74,582.90,47.25,0000 0000 0000 0000 000000
2017-08-02 02:45:05,0.01,2.82,0.00,25.72,29.35,31.76,13.68,50.41,1003.45,2021.99,2451.03,2429.97,2696.49,600.00,582.94,47.30,0000 0000 0000 0000 000000
2017-08-02 02:50:07,0.02,2.82,0.00,25.75,29.37,31.78,13.73,50.42,1003.46,2021.98,2451.00,2429.69,2696.06,600.14,583.00,47.35,0000 0000 0000 0000 000000
2017-08-02 02:55:08,0.01,2.82,0.00,25.77,29.40,31.80,13.71,50.46,1003.52,2021.92,2450.99,2429.11,2696.00,600.15,583.09,47.40,0000 0000 0000 0000 000000
2017-08-02 03:00:10,-0.00,2.82,0.00,25.80,29.42,31.83,13.67,50.38,1003.53,2021.78,2450.72,2429.01,2695.98,599.95,582.82,47.45,0000 0000 0000 0000 000000
2017-08-02 03:05:11,-0.03,2.82,0.00,25.82,29.44,31.84,13.67,50.53,1003.48,2021.18,2450.12,2428.97,2695.33,600.38,583.11,47.50,0000 0000 0000 0000 000000
2017-08-02 03:10:13,0.00,2.82,0.00,25.85,29.46,31.87,13.73,50.50,1003.45,2021.07,2450.01,2428.92,2695.04,600.27,582.89,47.55,0000 0000 0000 0000 000000
2017-08-02 03:15:14,0.02,2.82,0.00,25.88,29.48,31.89,13.71,50.56,1003.44,2021.00,2449.95,2428.33,2695.00,599.99,582.71,47.61,0000 0000 0000 0000 000000
2017-08-02 03:20:15,0.03,2.82,0.00,25.90,29.51,31.91,13.68,50.52,1003.44,2021.00,2449.45,2428.00,2694.67,599.72,582.21,47.66,0000 0000 0000 0000 000000
2017-08-02 03:25:17,0.01,2.82,0.00,25.92,29.53,31.94,13.66,50.46,1003.43,2021.00,2449.16,2428.00,2694.20,599.42,581.99,47.71,0000 0000 0000 0000 000000
2017-08-02 03:30:18,0.00,2.82,0.00,25.96,29.55,31.96,13.66,50.38,1003.43,2020.99,2449.02,2427.96,2694.01,600.01,582.63,47.76,0000 0000 0000 0000 000000
2017-08-02 03:35:19,0.01,2.82,0.00,25.98,29.57,31.98,13.63,50.37,1003.43,2020.97,2448.99,2427.64,2693.99,600.05,582.52,47.81,0000 0000 0000 0000 000000
2017-08-02 03:40:21,0.00,2.82,0.00,26.01,29.60,32.01,13.69,50.15,1003.39,2020.86,2448.97,2427.12,2693.89,600.12,582.45,47.86,0000 0000 0000 0000 000000
2017-08-02 03:45:22,0.02,2.82,0.00,26.03,29.62,32.01,13.55,50.31,1003.35,2020.68,2448.69,2427.00,2693.29,599.47,581.79,47.91,0000 0000 0000 0000 000000
2017-08-02 03:50:23,-0.03,2.82,0.00,26.06,29.65,32.04,13.58,50.24,1003.11,2020.30,2448.07,2426.99,2693.01,599.73,581.82,47.96,0000 0000 0000 0000 000000
2017-08-02 03:55:25,-0.00,2.82,0.00,26.09,29.67,32.07,13.62,50.37,1002.96,2020.10,2447.95,2426.77,2692.98,599.71,581.87,48.01,0000 0000 0000 0000 000000
2017-08-02 04:00:26,0.03,2.82,0.00,26.12,29.70,32.10,13.56,50.33,1002.94,2020.03,2447.66,2426.20,2692.78,599.53,581.38,48.06,0000 0000 0000 0000 000000
2017-08-02 04:05:27,0.02,2.83,0.00,26.14,29.72,32.12,13.62,50.41,1002.94,2020.00,2447.05,2426.00,2692.10,599.94,581.80,48.11,0000 0000 0000 0000 000000
2017-08-02 04:10:28,0.00,2.83,0.00,26.16,29.75,32.14,13.69,50.55,1002.94,2020.00,2446.99,2425.99,2692.00,600.20,582.00,48.16,0000 0000 0000 0000 000000
2017-08-02 04:15:29,0.04,2.83,0.00,26.18,29.77,32.18,13.69,50.29,1002.94,2020.00,2446.61,2425.63,2691.82,600.05,581.75,48.21,0000 0000 0000 0000 000000
2017-08-02 04:20:30,0.03,2.83,0.00,26.21,29.79,32.20,13.55,50.23,1002.76,2020.00,2446.10,2425.08,2691.16,599.56,581.13,48.26,0000 0000 0000 0000 000000
2017-08-02 04:25:31,0.00,2.83,0.00,26.22,29.81,32.22,13.62,50.22,1002.51,2019.98,2446.01,2425.00,2691.00,600.36,581.75,48.31,0000 0000 0000 0000 000000
2017-08-02 04:30:33,0.00,2.83,0.00,26.23,29.84,32.25,13.53,50.09,1002.47,2019.94,2445.97,2424.97,2690.97,599.69,581.09,48.36,0000 0000 0000 0000 000000
2017-08-02 04:35:34,0.04,2.83,0.00,26.26,29.86,32.28,13.63,50.02,1002.46,2019.74,2445.31,2424.59,2690.43,600.06,581.48,48.41,0000 0000 0000 0000 000000
2017-08-02 04:40:35,-0.02,2.83,0.00,26.28,29.89,32.30,13.70,50.09,1002.46,2019.45,2445.00,2424.05,2690.02,600.58,581.93,48.46,0000 0000 0000 0000 000000
2017-08-02 04:45:37,-0.02,2.83,0.00,26.30,29.91,32.32,13.60,50.19,1002.46,2019.17,2444.86,2424.00,2689.98,599.38,580.68,48.51,0000 0000 0000 0000 000000
2017-08-02 04:50:38,0.04,2.83,0.00,26.32,29.94,32.34,13.61,50.41,1002.46,2019.03,2444.11,2423.87,2689.34,599.86,581.11,48.57,0000 0000 0000 0000 000000
2017-08-02 04:55:39,0.03,2.83,0.00,26.35,29.96,32.37,13.66,50.23,1002.43,2019.02,2443.93,2423.18,2689.01,600.23,581.43,48.62,0000 0000 0000 0000 000000
2017-08-02 05:00:41,0.02,2.83,0.00,26.36,29.98,32.39,13.56,50.20,1002.12,2019.00,2443.26,2422.99,2688.79,600.26,581.20,48.67,0000 0000 0000 0000 000000
2017-08-02 05:05:42,0.04,2.84,0.00,26.38,30.01,32.42,13.69,50.52,1002.12,2019.00,2442.97,2422.55,2688.06,600.11,580.94,48.72,0000 0000 0000 0000 000000
2017-08-02 05:10:44,0.03,2.84,0.00,26.39,30.03,32.44,13.64,50.41,1001.99,2019.00,2442.35,2422.04,2687.94,600.21,580.87,48.77,0000 0000 0000 0000 000000
2017-08-02 05:15:45,0.02,2.84,0.00,26.35,30.05,32.47,13.68,50.37,1001.97,2019.00,2441.90,2421.95,2687.15,600.26,581.24,48.82,0000 0000 0000 0000 000000
2017-08-02 05:20:46,0.05,2.84,0.00,26.30,30.07,32.52,13.71,50.37,1001.98,2019.00,2441.08,2421.23,2686.96,600.07,581.00,48.87,0000 0000 0000 0000 000000
2017-08-02 05:25:48,0.05,2.85,0.00,26.30,30.09,32.54,13.65,50.33,1001.98,2018.99,2440.18,2420.90,2686.17,599.94,580.95,48.92,0000 0000 0000 0000 000000
2017-08-02 05:30:49,0.07,2.85,0.00,26.31,30.11,32.54,13.55,50.17,1001.98,2018.97,2439.40,2420.12,2685.58,599.91,580.84,48.97,0000 0000 0000 0000 000000
2017-08-02 05:35:50,0.05,2.85,0.00,26.34,30.12,32.55,13.67,50.13,1001.97,2018.98,2438.39,2419.71,2684.86,600.17,580.99,49.02,0000 0000 0000 0000 000000
2017-08-02 05:40:52,0.06,2.86,0.00,26.38,30.15,32.54,13.66,50.40,1001.97,2018.92,2437.37,2418.96,2683.96,599.93,580.68,49.07,0000 0000 0000 0000 000000
2017-08-02 05:45:53,0.07,2.86,0.00,26.41,30.16,32.55,13.62,50.21,1001.89,2018.92,2436.35,2418.12,2683.06,600.01,580.64,49.12,0000 0000 0000 0000 000000
2017-08-02 05:50:54,0.03,2.86,0.00,26.44,30.17,32.57,13.60,50.28,1001.82,2018.64,2435.31,2417.46,2682.20,600.16,580.85,49.17,0000 0000 0000 0000 000000
2017-08-02 05:55:55,0.02,2.86,0.00,26.46,30.20,32.58,13.66,50.09,1001.89,2018.19,2434.42,2416.81,2681.32,600.11,580.58,49.22,0000 0000 0000 0000 000000
2017-08-02 06:00:56,0.06,2.87,0.00,26.48,30.21,32.60,13.61,49.94,1001.68,2018.05,2433.31,2416.03,2680.39,599.99,580.42,49.27,0000 0000 0000 0000 000000
2017-08-02 06:05:58,0.07,2.87,0.00,26.51,30.23,32.61,13.63,49.89,1001.54,2018.02,2432.34,2415.30,2679.58,600.25,580.56,49.32,0000 0000 0000 0000 000000
2017-08-02 06:10:59,0.07,2.87,0.00,26.53,30.25,32.63,13.63,50.22,1001.66,2018.00,2431.36,2414.58,2678.72,600.37,580.70,49.37,0000 0000 0000 0000 000000
2017-08-02 06:16:00,0.06,2.87,0.00,26.55,30.27,32.64,13.61,50.04,1001.81,2018.00,2430.42,2413.88,2677.82,599.77,580.08,49.42,0000 0000 0000 0000 000000
2017-08-02 06:21:01,0.07,2.88,0.00,26.57,30.29,32.66,13.56,49.77,1001.66,2018.00,2429.42,2413.05,2676.92,599.80,580.14,49.47,0000 0000 0000 0000 000000
2017-08-02 06:26:03,0.08,2.88,0.00,26.60,30.31,32.69,13.53,49.58,1001.51,2018.00,2428.41,2412.29,2676.02,599.62,579.82,49.53,0000 0000 0000 0000 000000
2017-08-02 06:31:04,0.08,2.89,0.00,26.58,30.32,32.71,13.54,49.58,1001.48,2018.00,2427.35,2411.45,2675.00,599.95,580.05,49.58,0000 0000 0000 0000 000000
2017-08-02 06:36:05,0.08,2.89,0.00,26.53,30.34,32.74,13.63,49.42,1001.47,2017.99,2426.16,2410.57,2674.02,600.06,580.22,49.63,0000 0000 0000 0000 000000
2017-08-02 06:41:07,0.08,2.90,0.00,26.49,30.35,32.79,13.54,49.64,1001.39,2017.99,2425.07,2409.66,2673.01,599.81,580.09,49.68,0000 0000 0000 0000 000000
2017-08-02 06:46:08,0.06,2.90,0.00,26.46,30.36,32.80,13.54,49.66,1001.31,2017.98,2423.98,2408.88,2672.01,599.99,580.32,49.73,0000 0000 0000 0000 000000
2017-08-02 06:51:10,0.07,2.90,0.00,26.40,30.37,32.83,13.57,49.64,1001.27,2017.92,2422.97,2408.05,2671.04,600.08,580.55,49.78,0000 0000 0000 0000 000000
2017-08-02 06:56:11,0.08,2.91,0.00,26.34,30.37,32.85,13.60,49.49,1001.31,2017.96,2422.06,2407.30,2670.16,599.77,580.20,49.83,0000 0000 0000 0000 000000
2017-08-02 07:01:12,0.08,2.91,0.00,26.30,30.37,32.86,13.65,49.49,1001.31,2017.94,2421.14,2406.56,2669.32,599.84,580.44,49.88,0000 0000 0000 0000 000000
2017-08-02 07:06:13,0.05,2.91,0.00,26.31,30.37,32.85,13.62,49.52,1001.08,2017.94,2420.21,2405.94,2668.52,600.00,580.52,49.93,0000 0000 0000 0000 000000
2017-08-02 07:11:14,0.07,2.92,0.00,26.32,30.36,32.83,13.61,49.78,1001.00,2017.97,2419.39,2405.12,2667.76,599.96,580.39,49.98,0000 0000 0000 0000 000000
2017-08-02 07:16:15,0.08,2.92,0.00,26.35,30.36,32.81,13.56,49.62,1001.00,2017.97,2418.36,2404.34,2666.82,599.60,579.92,50.03,0000 0000 0000 0000 000000
2017-08-02 07:21:16,0.06,2.93,0.00,26.37,30.35,32.79,13.61,49.59,1000.99,2017.97,2417.42,2403.66,2666.00,599.98,580.20,50.08,0000 0000 0000 0000 000000
2017-08-02 07:26:18,0.04,2.93,0.00,26.39,30.35,32.76,13.52,49.46,1000.99,2017.99,2416.91,2403.01,2665.15,599.77,580.08,50.13,0000 0000 0000 0000 000000
2017-08-02 07:31:19,0.08,2.93,0.00,26.40,30.35,32.76,13.63,49.63,1000.98,2017.98,2416.07,2402.26,2664.45,599.91,580.18,50.18,0000 0000 0000 0000 000000
2017-08-02 07:36:20,0.06,2.93,0.00,26.40,30.35,32.77,13.62,49.74,1000.99,2017.99,2415.27,2401.68,2663.76,599.82,580.01,50.23,0000 0000 0000 0000 000000
2017-08-02 07:41:21,0.04,2.94,0.00,26.40,30.35,32.77,13.61,49.54,1000.99,2017.99,2414.71,2401.01,2663.00,599.95,580.23,50.28,0000 0000 0000 0000 000000
2017-08-02 07:46:23,0.08,2.94,0.00,26.39,30.35,32.77,13.59,49.52,1000.99,2017.99,2413.73,2400.21,2662.13,600.37,580.57,50.33,0000 0000 0000 0000 000000
2017-08-02 07:51:24,0.08,2.95,0.00,26.37,30.35,32.78,13.57,49.62,1000.97,2017.99,2412.73,2399.38,2661.14,600.05,580.41,50.38,0000 0000 0000 0000 000000
2017-08-02 07:56:25,0.08,2.95,0.00,26.32,30.35,32.79,13.62,49.76,1000.94,2017.99,2411.95,2398.24,2660.00,600.37,580.43,50.44,0000 0000 0000 0000 000000
2017-08-02 08:01:26,0.08,2.95,0.00,26.28,30.35,32.81,13.65,49.44,1000.91,2018.00,2411.09,2397.26,2658.87,600.09,580.48,50.49,0000 0000 0000 0000 000000
2017-08-02 08:06:27,0.09,2.96,0.00,26.27,30.35,32.81,13.55,49.23,1000.68,2018.00,2410.21,2396.13,2657.67,599.88,580.20,50.54,0000 0000 0000 0000 000000
2017-08-02 08:11:29,0.09,2.96,0.00,26.30,30.33,32.78,13.55,49.33,1000.51,2018.00,2409.17,2395.06,2656.40,599.73,579.87,50.59,0000 0000 0000 0000 000000
2017-08-02 08:16:30,0.08,2.97,0.00,26.31,30.32,32.77,13.53,49.30,1000.50,2018.00,2408.46,2394.06,2655.43,599.45,579.60,50.64,0000 0000 0000 0000 000000
2017-08-02 08:21:31,0.06,2.97,0.00,26.33,30.32,32.74,13.60,49.22,1000.50,2018.00,2407.84,2393.13,2654.41,599.96,580.03,50.69,0000 0000 0000 0000 000000
2017-08-02 08:26:32,0.08,2.98,0.00,26.35,30.32,32.74,13.57,49.10,1000.50,2018.02,2407.04,2392.20,2653.33,599.83,579.78,50.74,0000 0000 0000 0000 000000
2017-08-02 08:31:34,0.09,2.98,0.00,26.37,30.32,32.74,13.55,49.13,1000.50,2018.04,2406.25,2391.19,2652.22,600.10,580.07,50.79,0000 0000 0000 0000 000000
2017-08-02 08:36:35,0.07,2.98,0.00,26.39,30.32,32.73,13.59,49.04,1000.50,2018.07,2405.68,2390.26,2651.25,599.87,579.85,50.84,0000 0000 0000 0000 000000
2017-08-02 08:41:36,0.08,2.99,0.00,26.41,30.32,32.71,13.62,49.25,1000.50,2018.10,2405.00,2389.22,2650.11,600.20,580.11,50.89,0000 0000 0000 0000 000000
2017-08-02 08:46:37,0.09,2.99,0.00,26.42,30.32,32.73,13.65,49.17,1000.50,2018.22,2404.22,2388.22,2648.97,600.23,580.11,50.94,0000 0000 0000 0000 000000
2017-08-02 08:51:39,0.10,3.00,0.00,26.43,30.32,32.73,13.61,49.20,1000.50,2018.28,2403.48,2387.17,2647.83,600.03,579.93,50.99,0000 0000 0000 0000 000000
2017-08-02 08:56:40,0.07,3.00,0.00,26.44,30.32,32.73,13.58,49.11,1000.44,2018.18,2402.79,2386.06,2646.62,599.74,579.50,51.04,0000 0000 0000 0000 000000
2017-08-02 09:01:41,0.08,3.01,0.00,26.46,30.32,32.73,13.55,48.98,1000.30,2018.12,2401.95,2384.90,2645.42,599.62,579.34,51.09,0000 0000 0000 0000 000000
2017-08-02 09:06:42,0.10,3.01,0.00,26.47,30.33,32.74,13.58,49.18,1000.06,2018.12,2401.12,2383.75,2644.16,600.11,579.64,51.14,0000 0000 0000 0000 000000
2017-08-02 09:11:43,0.09,3.02,0.00,26.47,30.35,32.76,13.61,49.24,1000.02,2018.12,2400.38,2382.67,2642.96,599.96,579.49,51.19,0000 0000 0000 0000 000000
2017-08-02 09:16:45,0.09,3.02,0.00,26.48,30.35,32.77,13.61,49.23,1000.01,2018.10,2399.58,2381.52,2641.67,600.07,579.24,51.24,0000 0000 0000 0000 000000
2017-08-02 09:21:46,0.09,3.02,0.00,26.50,30.35,32.77,13.58,49.17,1000.01,2018.08,2398.69,2380.34,2640.41,600.11,579.56,51.29,0000 0000 0000 0000 000000
2017-08-02 09:26:47,0.08,3.03,0.00,26.51,30.37,32.78,13.58,49.06,999.98,2018.10,2397.94,2379.13,2639.08,599.96,579.37,51.34,0000 0000 0000 0000 000000
2017-08-02 09:31:48,0.10,3.04,0.00,26.52,30.37,32.78,13.62,49.28,999.99,2018.05,2397.07,2377.92,2637.78,599.72,579.11,51.39,0000 0000 0000 0000 000000
2017-08-02 09:36:50,0.10,3.04,0.00,26.52,30.38,32.80,13.55,48.81,999.94,2018.02,2396.16,2376.71,2636.48,599.49,578.94,51.44,0000 0000 0000 0000 000000
2017-08-02 09:41:51,0.09,3.04,0.00,26.53,30.40,32.81,13.50,48.99,999.81,2018.04,2395.39,2375.60,2635.26,599.93,579.21,51.49,0000 0000 0000 0000 000000
2017-08-02 09:46:52,0.09,3.05,0.00,26.55,30.40,32.82,13.57,48.88,999.58,2018.01,2394.53,2374.48,2633.88,600.13,579.25,51.55,0000 0000 0000 0000 000000
2017-08-02 09:51:54,0.09,3.06,0.00,26.55,30.41,32.83,13.53,48.92,999.53,2018.00,2393.71,2373.33,2632.67,599.86,579.05,51.60,0000 0000 0000 0000 000000
2017-08-02 09:56:55,0.08,3.06,0.00,26.55,30.42,32.83,13.53,48.78,999.55,2018.00,2392.90,2372.27,2631.52,599.93,579.05,51.65,0000 0000 0000 0000 000000
2017-08-02 10:01:56,0.08,3.06,0.00,26.56,30.42,32.84,13.65,49.00,999.55,2018.00,2392.04,2371.17,2630.29,600.44,579.49,51.70,0000 0000 0000 0000 000000
2017-08-02 10:06:58,0.09,3.07,0.00,26.57,30.45,32.85,13.62,49.07,999.55,2018.00,2391.15,2370.08,2629.11,599.72,578.90,51.75,0000 0000 0000 0000 000000
2017-08-02 10:11:59,0.08,3.07,0.00,26.58,30.45,32.86,13.57,48.73,999.56,2018.00,2390.38,2369.08,2627.97,600.06,579.09,51.80,0000 0000 0000 0000 000000
2017-08-02 10:17:01,0.08,3.08,0.00,26.60,30.46,32.87,13.64,48.69,999.54,2018.00,2389.54,2368.07,2626.83,600.25,579.32,51.85,0000 0000 0000 0000 000000
2017-08-02 10:22:02,0.08,3.08,0.00,26.60,30.47,32.89,13.59,48.76,999.55,2018.00,2388.65,2367.09,2625.70,600.09,579.08,51.90,0000 0000 0000 0000 000000
2017-08-02 10:27:03,0.07,3.09,0.00,26.60,30.47,32.89,13.53,48.71,999.53,2018.00,2387.91,2366.35,2624.68,599.64,578.59,51.95,0000 0000 0000 0000 000000
2017-08-02 10:32:04,0.08,3.09,0.00,26.60,30.50,32.90,13.49,48.73,999.53,2017.98,2387.07,2365.41,2623.62,599.93,578.83,52.00,0000 0000 0000 0000 000000
2017-08-02 10:37:05,0.06,3.09,0.00,26.61,30.50,32.92,13.56,48.56,999.53,2017.98,2386.32,2364.59,2622.90,599.72,578.72,52.05,0000 0000 0000 0000 000000
2017-08-02 10:42:06,0.05,3.10,0.00,26.62,30.50,32.92,13.55,48.43,999.53,2017.97,2385.71,2363.85,2622.00,599.96,578.93,52.10,0000 0000 0000 0000 000000
2017-08-02 10:47:07,0.06,3.10,0.00,26.62,30.52,32.93,13.61,48.58,999.53,2017.96,2385.00,2363.00,2621.07,600.08,579.02,52.15,0000 0000 0000 0000 000000
2017-08-02 10:52:08,0.08,3.11,0.00,26.62,30.52,32.95,13.54,48.52,999.53,2017.94,2384.19,2362.11,2620.15,599.83,578.72,52.20,0000 0000 0000 0000 000000
2017-08-02 10:57:10,0.05,3.11,0.00,26.63,30.54,32.96,13.55,48.62,999.53,2017.84,2383.73,2361.34,2619.25,599.97,579.06,52.25,0000 0000 0000 0000 000000
2017-08-02 11:02:11,0.05,3.11,0.00,26.64,30.55,32.96,13.55,48.55,999.53,2017.74,2383.03,2360.72,2618.46,599.88,578.79,52.30,0000 0000 0000 0000 000000
2017-08-02 11:07:12,0.03,3.11,0.00,26.63,30.55,32.97,13.64,48.66,999.53,2017.48,2382.33,2359.99,2617.66,600.43,579.35,52.35,0000 0000 0000 0000 000000
2017-08-02 11:12:14,0.04,3.11,0.00,26.62,30.56,32.99,13.61,48.71,999.51,2017.36,2381.92,2359.16,2616.93,600.17,579.15,52.40,0000 0000 0000 0000 000000
2017-08-02 11:17:15,0.06,3.12,0.00,26.64,30.57,32.99,13.59,48.65,999.41,2017.23,2381.10,2358.52,2616.07,600.22,579.04,52.46,0000 0000 0000 0000 000000
2017-08-02 11:22:16,0.04,3.12,0.00,26.64,30.57,33.00,13.49,48.52,999.40,2017.29,2380.62,2357.92,2615.38,599.88,578.62,52.51,0000 0000 0000 0000 000000
2017-08-02 11:27:17,0.06,3.12,0.00,26.65,30.58,33.00,13.56,48.56,999.24,2017.16,2379.94,2357.10,2614.54,600.03,578.80,52.56,0000 0000 0000 0000 000000
2017-08-02 11:32:19,0.08,3.13,0.00,26.65,30.60,33.01,13.56,48.55,999.13,2017.24,2379.11,2356.48,2613.78,599.73,578.35,52.61,0000 0000 0000 0000 000000
2017-08-02 11:37:20,0.05,3.13,0.00,26.66,30.60,33.03,13.54,48.59,999.27,2017.12,2378.32,2355.67,2612.91,599.98,578.68,52.66,0000 0000 0000 0000 000000
2017-08-02 11:42:21,0.05,3.13,0.00,26.66,30.60,33.03,13.54,48.40,999.52,2017.10,2377.67,2354.92,2612.02,599.72,578.58,52.71,0000 0000 0000 0000 000000
2017-08-02 11:47:23,0.08,3.14,0.00,26.67,30.60,33.02,13.59,48.67,999.51,2017.11,2376.73,2354.06,2611.08,599.98,578.78,52.76,0000 0000 0000 0000 000000
2017-08-02 11:52:24,0.08,3.14,0.00,26.66,30.62,33.03,13.54,48.47,999.47,2017.07,2375.79,2353.12,2610.01,600.02,578.87,52.81,0000 0000 0000 0000 000000
2017-08-02 11:57:25,0.07,3.15,0.00,26.67,30.62,33.04,13.59,48.36,999.37,2017.05,2374.98,2352.21,2609.05,600.36,579.03,52.86,0000 0000 0000 0000 000000
2017-08-02 12:02:26,0.08,3.15,0.00,26.67,30.62,33.04,13.58,48.67,999.21,2017.04,2374.15,2351.39,2608.12,600.14,578.73,52.91,0000 0000 0000 0000 000000
2017-08-02 12:07:28,0.08,3.15,0.00,26.68,30.63,33.05,13.57,48.49,999.27,2017.04,2373.32,2350.58,2607.17,600.14,578.81,52.96,0000 0000 0000 0000 000000
2017-08-02 12:12:29,0.06,3.16,0.00,26.67,30.64,33.07,13.60,48.46,999.18,2017.03,2372.64,2349.83,2606.31,600.30,579.03,53.01,0000 0000 0000 0000 000000
2017-08-02 12:17:30,0.06,3.16,0.00,26.69,30.65,33.07,13.52,48.54,999.05,2017.00,2371.91,2349.03,2605.32,599.78,578.32,53.06,0000 0000 0000 0000 000000
2017-08-02 12:22:32,0.08,3.16,0.00,26.69,30.65,33.06,13.56,48.39,999.05,2017.01,2371.04,2348.27,2604.52,599.79,578.30,53.11,0000 0000 0000 0000 000000
2017-08-02 12:27:33,0.07,3.17,0.00,26.70,30.65,33.08,13.50,48.19,999.04,2017.00,2370.17,2347.50,2603.65,599.83,578.39,53.16,0000 0000 0000 0000 000000
2017-08-02 12:32:35,0.05,3.17,0.00,26.70,30.65,33.08,13.56,48.45,999.04,2017.00,2369.39,2346.82,2602.82,599.70,578.13,53.21,0000 0000 0000 0000 000000
2017-08-02 12:37:36,0.07,3.17,0.00,26.70,30.66,33.09,13.62,48.67,999.04,2017.00,2368.55,2346.00,2601.95,600.12,578.63,53.26,0000 0000 0000 0000 000000
2017-08-02 12:42:37,0.08,3.18,0.00,26.70,30.67,33.10,13.59,48.63,999.04,2017.00,2367.66,2345.16,2601.05,600.20,578.68,53.31,0000 0000 0000 0000 000000
2017-08-02 12:47:38,0.06,3.18,0.00,26.70,30.67,33.10,13.51,48.42,999.04,2017.00,2366.90,2344.45,2600.15,599.78,578.24,53.36,0000 0000 0000 0000 000000
2017-08-02 12:52:40,0.06,3.19,0.00,26.70,30.67,33.09,13.52,48.31,999.04,2017.00,2366.06,2343.86,2599.24,600.00,578.28,53.41,0000 0000 0000 0000 000000
2017-08-02 12:57:41,0.07,3.19,0.00,26.70,30.67,33.10,13.55,48.32,999.04,2017.00,2365.30,2343.06,2598.54,600.31,578.74,53.47,0000 0000 0000 0000 000000